Regional Weather Roundup
Issued by NWS

Home | Current Version | Previous Version | Text Only | Print | Product List | Glossary On
Versions: 1 2 3 4 5 6 7 8 9 10 11 12 13 14 15 16 17 18 19 20 21 22 23 24 25 26 27 28 29 30 31 32 33 34 35 36 37 38 39 40 41 42 43 44 45 46 47 48 49 50
000
ASUS43 KLSX 310959
RWRMO

WEATHER SUMMARY FOR MISSOURI
NATIONAL WEATHER SERVICE SPRINGFIELD MO
500 AM CDT SUN AUG 31 2014

NOTE: "FAIR" INDICATES FEW OR NO CLOUDS BELOW 12,000 FEET WITH NO
       SIGNIFICANT WEATHER AND/OR OBSTRUCTIONS TO VISIBILITY.
       CURRENT SKY AND/OR WEATHER CONDITIONS ARE NOT AVAILABLE FOR
       CHILLICOTHE AND FARMINGTON.

MOZ001>031-035>038-043-044-053-054-311100-
...NORTHERN AND WESTERN MISSOURI...

CITY           SKY/WX    TMP DP  RH WIND       PRES   REMARKS
KANSAS CTY INT CLEAR     69  66  90 S9        29.88S
KANSAS C DTWN  CLEAR     74  67  78 S7        29.88S
LEE`S SUMMIT   CLEAR     72  68  87 S7        29.90S
ST JOSEPH      CLEAR     67  65  93 SE7       29.86F
CHILLICOTHE      N/A     66  64  93 CALM      29.90F
KIRKSVILLE     CLEAR     64  63  96 CALM      29.93R FOG

$$
MOZ066>068-077>081-088>096-101>105-311100-
...SOUTHWEST MISSOURI...

CITY           SKY/WX    TMP DP  RH WIND       PRES   REMARKS
SPRINGFIELD    CLEAR     70  68  93 S8        29.96R
JOPLIN         CLEAR     72  69  90 S10       29.94R

$$
MOZ032>034-039>042-045>050-055>058-069>072-311100-
...CENTRAL MISSOURI...

CITY           SKY/WX    TMP DP  RH WIND       PRES   REMARKS
COLUMBIA       CLEAR     67  67 100 S6        29.94R
JEFFERSON CITY CLEAR     68  67  96 E3        29.93S
ROLLA          CLEAR     70  69  97 S8        29.95S
SEDALIA        CLEAR     69  66  90 S7        29.93S
OSAGE BEACH    CLEAR     68  64  88 SE3       29.94S

$$
MOZ051-052-059>065-311100-
...EAST CENTRAL MISSOURI...

CITY           SKY/WX    TMP DP  RH WIND       PRES   REMARKS
ST LOUIS INTL  PTCLDY    74  70  87 S3        29.95R
SPIRIT OF STL  CLEAR     71  69  93 CALM      29.93S
ST CHARLES     CLEAR     70  69  97 E5        29.93S

$$
MOZ072>076-082>087-097>100-106>115-311100-
...SOUTH CENTRAL AND SOUTHEAST MISSOURI...

CITY           SKY/WX    TMP DP  RH WIND       PRES   REMARKS
CAPE GIRARDEAU CLOUDY    73  70  90 S6        29.97S
FARMINGTON     CLOUDY    72  68  88 S3        29.99S
POPLAR BLUFF   CLOUDY    73  69  87 CALM      29.96S
WEST PLAINS    CLEAR     70  68  93 CALM      30.00S

$$


USA.gov is the U.S. government's official web portal to all federal, state and local government web resources and services.